Location: Waco, TX
(31.5480°N, 97.1670°W)
Time: 09:32:06
(UTC-05:00)

ISS - Pass Details

Date: 12 August 2018
Orbit: 402 x 409 km, 51.6° (Epoch: 18 August)

Event Time Altitude Azimuth Distance (km) Brightness Sun altitude
Rises 19:05:51 0° 333° (NNW) 2,317 0.6 13.5°
Reaches altitude 10° 19:08:44 10° 1° (N) 1,457 -0.8 12.9°
Maximum altitude 19:10:30 14° 33° (NNE) 1,252 -1.5 12.5°
Drops below altitude 10° 19:12:16 10° 66° (ENE) 1,457 -1.5 12.1°
Sets 19:15:08 0° 94° (E) 2,315 -0.6 11.5°
